Wind_Speed
26 26 24 24 24 25 24 24 23 23 24 24 24 25 26 26 27 27 28 28 28 29 30 32 33 34 35 35 36 36 37 38 39 40 42 43 44 46 48 49 51 53 54 54
28 27 26 26 26 26 26 25 24 25 25 26 25 25 26 26 27 28 29 29 29 30 31 32 33 34 34 34 34 35 35 36 38 38 40 42 42 43 45 46 48 50 52 53
30 28 28 28 27 27 27 26 26 26 26 27 27 26 26 27 28 28 29 29 30 31 31 32 33 33 33 34 34 35 35 36 37 38 39 40 41 42 44 46 47 49 51 51
31 30 30 29 28 28 28 27 27 28 28 28 28 27 25 27 28 29 29 29 30 31 31 32 33 33 33 33 34 35 35 36 37 38 40 41 43 43 44 46 47 48 49 50
32 31 30 30 29 29 29 28 29 29 30 29 28 29 26 27 27 28 29 29 30 31 32 32 33 34 34 34 34 35 35 36 37 39 42 43 43 44 45 46 46 47 48 48
33 32 32 31 30 31 30 30 30 31 31 31 29 30 29 27 28 29 30 30 31 31 32 33 33 34 35 35 35 35 35 37 38 39 41 43 43 43 44 45 46 47 47 47
33 32 32 31 31 31 31 31 31 32 32 32 31 31 30 29 29 30 31 31 32 33 34 34 34 35 35 36 36 37 37 38 38 40 42 43 43 44 44 45 45 46 46 47
33 33 33 32 32 31 31 32 32 33 33 33 32 32 30 30 31 31 31 32 33 34 34 35 36 36 36 36 36 38 38 39 40 41 42 43 44 45 45 45 45 46 47 48
35 34 34 33 33 33 33 33 32 34 35 35 34 33 31 31 31 31 32 33 33 33 34 35 35 35 36 36 37 38 39 40 41 41 42 43 44 45 45 46 47 47 46 46
36 36 35 34 34 34 33 33 32 34 35 36 36 33 32 31 31 32 33 33 33 33 34 35 34 34 35 36 37 38 39 40 41 43 43 44 45 46 46 46 47 48 47 46
36 37 37 36 35 34 34 34 34 35 36 36 37 34 33 32 32 33 33 33 33 34 35 35 35 35 36 37 38 39 40 41 42 42 43 44 44 45 45 46 47 47 47 46
36 37 37 37 36 36 36 35 35 36 36 36 37 35 33 33 33 33 34 34 34 35 35 35 36 36 37 38 38 39 40 41 42 43 44 45 44 44 45 45 45 45 46 46
37 38 38 38 37 37 36 36 36 36 37 37 37 35 34 34 34 34 35 35 35 35 35 35 36 36 38 39 39 40 41 41 42 43 44 44 44 44 44 45 45 45 45 45
38 39 39 38 37 36 35 35 35 36 36 37 36 34 33 34 34 35 36 35 35 36 36 36 37 38 39 39 40 41 42 43 43 44 44 43 43 43 44 43 43 43 43 43
39 39 39 38 38 37 36 35 35 36 36 37 35 34 33 34 35 35 36 36 36 36 36 37 38 39 39 40 41 42 42 43 44 43 43 42 42 42 42 42 42 43 43 43
39 40 40 39 38 39 39 37 36 36 36 36 35 34 32 34 35 35 35 36 36 36 36 37 38 39 40 41 41 42 42 42 42 42 42 41 41 42 42 42 42 43 42 42
40 39 40 40 38 40 39 35 35 36 35 35 35 33 33 34 35 36 36 36 37 37 37 37 38 39 39 40 41 42 42 42 42 42 41 41 41 42 42 42 43 42 41 41
40 39 39 39 39 42 38 35 35 36 35 35 35 34 35 35 35 35 36 37 37 37 38 38 38 38 39 40 41 41 42 42 42 41 40 41 41 41 42 41 41 40 39 39
40 40 39 39 40 41 37 35 35 36 36 35 35 34 35 35 35 34 35 36 37 38 38 38 39 38 39 40 40 40 41 41 41 40 40 40 41 41 40 40 39 38 37 36
40 40 40 40 41 40 36 35 36 37 37 34 35 34 34 35 35 33 34 36 37 38 38 38 38 38 38 39 39 40 40 39 39 38 39 39 40 39 39 38 37 35 34 33
39 39 40 40 40 39 36 35 36 37 36 35 35 34 34 34 34 34 35 36 37 37 37 38 38 38 38 39 38 38 38 37 37 37 37 38 38 37 37 36 35 33 33 31
36 37 38 39 40 38 35 36 36 36 35 35 35 34 34 34 34 35 35 36 36 36 37 37 37 37 38 38 37 37 36 36 35 36 36 36 35 35 34 34 32 32 31 29
35 35 36 37 38 36 36 36 36 36 35 34 34 34 34 34 35 35 35 35 36 36 36 36 36 36 37 36 36 36 35 34 34 34 34 33 32 32 31 31 30 30 29 26
35 36 38 37 36 36 36 36 35 35 36 35 34 33 34 35 35 35 35 36 36 36 36 36 36 36 36 36 36 35 34 34 33 33 32 32 31 31 30 29 29 28 26 24
32 35 36 36 35 36 36 36 36 37 37 36 35 35 35 36 36 36 36 37 37 37 36 36 36 36 35 35 35 34 33 33 32 31 31 30 30 29 29 28 27 25 24 23
30 32 34 33 32 33 34 35 36 37 37 36 36 36 36 36 36 36 37 37 37 37 36 36 36 35 34 34 33 33 33 32 32 30 30 29 29 29 29 28 25 24 23 22
Wind_Direction
249 250 252 254 255 257 258 260 262 263 266 268 270 272 275 278 280 281 281 282 281 280 281 282 282 282 281 281 281 282 282 281 278 277 276 275 275 275 274 272 270 268 267 267
249 251 252 253 255 257 259 261 263 265 267 269 270 271 274 278 279 281 282 283 282 282 283 283 283 283 282 281 282 282 283 282 282 282 281 279 279 278 276 274 273 271 269 269
250 250 252 254 256 258 260 262 264 266 267 270 272 271 274 277 279 281 283 284 284 284 285 285 284 283 283 283 283 284 285 284 284 283 283 282 281 280 278 276 275 274 272 271
248 250 252 255 257 259 261 263 265 267 269 271 273 275 275 278 280 282 283 284 285 285 286 286 284 283 284 284 285 286 286 285 285 283 283 285 284 282 281 279 278 277 274 272
248 250 252 254 257 259 261 263 265 267 269 271 274 277 278 280 282 282 284 285 286 287 287 286 285 285 285 286 287 287 287 287 287 286 286 286 286 285 284 283 280 279 276 273
249 249 250 253 255 258 260 262 264 267 269 271 274 277 280 283 284 284 285 286 287 288 288 286 286 285 286 287 287 286 287 288 290 290 289 288 288 288 287 285 283 281 279 275
248 249 251 252 254 257 259 262 265 268 269 272 275 278 282 284 286 287 287 287 288 288 288 287 286 286 286 286 286 287 288 290 292 292 291 290 290 289 289 288 286 284 281 277
248 250 251 252 254 257 259 262 266 270 272 274 275 278 282 285 287 289 289 289 289 289 289 288 287 287 287 287 287 288 289 290 292 293 293 292 291 291 291 290 289 287 284 280
249 250 250 252 254 256 258 261 265 269 271 273 275 279 282 286 288 290 290 290 291 291 290 289 288 287 288 289 290 290 290 291 293 293 293 292 292 291 291 292 291 290 287 283
250 251 250 252 253 255 259 261 265 268 270 273 276 280 285 287 288 290 291 291 292 292 291 290 289 288 289 291 291 292 292 293 293 294 294 293 293 293 293 293 293 293 289 286
249 251 252 252 253 256 259 261 265 267 269 273 278 281 285 288 290 291 292 292 293 294 293 290 289 290 290 292 293 293 294 293 293 294 295 296 296 295 294 294 294 294 291 288
248 251 252 253 254 255 258 261 264 267 270 273 276 280 285 288 290 291 292 293 295 295 293 292 292 291 292 293 294 294 295 295 295 296 297 297 296 297 296 295 295 294 293 291
247 249 251 252 254 256 258 261 264 267 268 271 275 280 285 288 289 289 291 293 295 295 293 291 292 292 292 293 294 295 296 297 297 298 298 297 298 298 298 297 295 296 294 293
247 249 250 253 256 258 259 261 263 265 267 270 274 279 283 286 286 288 290 292 295 294 292 292 292 293 294 294 295 296 297 297 298 298 298 298 299 299 300 299 297 297 297 297
247 249 250 252 254 257 258 260 262 264 267 271 275 278 282 284 284 287 290 292 294 293 292 293 293 295 295 295 296 297 298 298 299 299 299 299 300 301 302 301 299 297 296 297
248 250 251 252 254 256 258 259 262 265 268 272 275 278 281 281 282 284 288 291 293 293 293 294 295 295 295 296 297 298 299 299 300 300 300 299 300 302 302 302 301 299 297 297
249 252 253 253 254 257 258 260 262 265 268 272 275 278 278 279 280 284 287 290 292 292 293 295 296 296 295 296 297 299 300 301 300 300 300 300 300 302 302 301 302 301 298 298
247 251 253 254 254 256 258 259 262 264 267 270 273 276 278 280 281 283 286 289 290 292 294 295 295 295 295 296 298 299 300 301 301 299 299 300 301 302 302 302 302 300 299 299
247 249 251 253 256 258 257 259 262 264 265 268 272 275 277 279 281 283 286 288 290 292 293 293 294 294 295 296 298 299 299 300 300 300 300 301 302 303 303 302 302 300 300 299
247 248 250 253 256 260 260 260 261 263 265 267 271 274 277 278 281 284 286 287 289 290 290 291 293 294 295 297 298 299 299 299 299 300 301 302 303 304 304 303 302 300 300 299
248 249 251 254 258 260 261 262 262 264 267 269 271 273 276 278 281 284 286 288 289 290 291 291 292 293 294 296 297 298 299 299 299 300 302 304 304 304 304 304 302 300 300 299
249 251 253 255 258 260 263 263 263 265 267 269 270 272 275 278 281 283 285 287 289 290 291 291 292 294 295 296 297 297 298 299 299 301 302 304 305 305 306 305 304 303 301 298
247 249 252 254 256 259 261 262 262 263 264 267 270 274 276 278 281 284 286 288 290 292 292 293 294 295 297 297 297 296 297 298 299 301 302 303 304 306 305 304 304 304 302 299
249 250 252 254 255 256 258 259 261 262 263 265 269 272 275 278 281 284 285 288 291 293 294 294 295 296 297 296 296 297 297 298 300 301 302 303 303 304 305 304 305 304 301 298
249 251 253 254 255 256 256 259 261 263 263 264 268 271 274 276 279 282 284 287 290 292 293 293 294 295 296 295 294 295 296 298 299 300 302 303 302 303 305 305 304 302 300 299
249 251 252 254 255 256 256 257 260 262 263 264 267 269 273 276 278 280 282 285 288 290 291 292 292 293 294 295 294 294 295 297 298 299 301 302 301 302 304 304 303 302 302 300
Height
5730 5732 5733 5734 5734 5734 5735 5735 5735 5735 5735 5734 5734 5733 5732 5730 5729 5727 5725 5723 5721 5719 5717 5715 5713 5711 5709 5707 5705 5703 5700 5697 5695 5693 5692 5690 5689 5687 5686 5685 5684 5684 5685 5685
5723 5725 5726 5726 5726 5727 5727 5728 5728 5728 5727 5727 5727 5726 5725 5723 5721 5719 5717 5715 5713 5711 5709 5707 5705 5702 5700 5698 5695 5693 5690 5687 5685 5682 5681 5679 5677 5676 5674 5672 5671 5670 5670 5670
5715 5718 5718 5719 5719 5720 5720 5721 5721 5721 5720 5719 5719 5719 5718 5716 5713 5712 5710 5707 5705 5703 5700 5698 5696 5694 5691 5689 5686 5683 5680 5677 5675 5673 5671 5668 5666 5664 5663 5661 5659 5658 5656 5656
5706 5709 5710 5711 5712 5712 5713 5714 5713 5713 5712 5712 5711 5710 5711 5708 5706 5704 5702 5700 5697 5695 5693 5690 5687 5685 5682 5680 5677 5674 5671 5668 5665 5663 5661 5658 5655 5653 5651 5649 5647 5645 5643 5642
5698 5700 5701 5703 5704 5704 5705 5705 5705 5705 5704 5703 5703 5701 5703 5701 5699 5697 5695 5692 5689 5687 5684 5681 5679 5676 5673 5671 5668 5665 5662 5659 5656 5653 5650 5647 5644 5642 5639 5637 5635 5633 5630 5629
5689 5691 5693 5694 5695 5696 5696 5697 5697 5696 5695 5696 5696 5694 5694 5693 5691 5689 5686 5684 5681 5679 5676 5673 5670 5667 5665 5662 5659 5656 5653 5650 5646 5643 5639 5636 5633 5630 5628 5625 5623 5620 5618 5616
5680 5682 5684 5686 5687 5688 5688 5689 5689 5687 5687 5687 5687 5685 5686 5685 5683 5680 5678 5675 5673 5670 5667 5664 5661 5658 5655 5653 5650 5647 5643 5640 5636 5633 5629 5626 5622 5619 5616 5613 5611 5608 5606 5604
5671 5674 5675 5677 5678 5679 5680 5680 5681 5680 5679 5679 5678 5677 5679 5677 5674 5671 5669 5666 5663 5661 5657 5654 5651 5649 5646 5643 5640 5637 5634 5630 5627 5623 5619 5615 5612 5608 5605 5601 5598 5595 5593 5591
5661 5664 5666 5667 5669 5670 5670 5671 5672 5671 5669 5669 5669 5669 5670 5668 5666 5663 5660 5658 5654 5651 5648 5645 5642 5639 5636 5633 5631 5627 5624 5620 5616 5612 5609 5605 5601 5597 5593 5590 5586 5582 5578 5576
5651 5654 5656 5657 5659 5660 5662 5662 5662 5661 5660 5659 5660 5661 5661 5659 5657 5655 5652 5649 5646 5642 5639 5635 5632 5629 5627 5624 5621 5617 5613 5610 5606 5602 5597 5593 5589 5584 5580 5577 5572 5568 5564 5561
5641 5644 5646 5648 5650 5652 5653 5654 5653 5652 5652 5652 5650 5655 5652 5650 5648 5645 5642 5639 5636 5633 5630 5626 5623 5620 5617 5614 5610 5607 5603 5599 5595 5590 5585 5581 5576 5571 5567 5563 5558 5554 5551 5547
5631 5633 5635 5638 5640 5641 5642 5644 5644 5644 5644 5643 5642 5646 5643 5641 5638 5635 5633 5630 5627 5624 5620 5616 5613 5610 5607 5604 5600 5596 5592 5587 5583 5578 5574 5569 5564 5559 5555 5550 5546 5541 5537 5534
5620 5623 5625 5627 5631 5632 5632 5634 5634 5634 5634 5633 5633 5638 5634 5631 5629 5626 5623 5621 5618 5614 5611 5607 5604 5601 5597 5593 5589 5585 5581 5576 5571 5567 5562 5557 5552 5547 5543 5538 5533 5529 5524 5521
5609 5612 5615 5618 5619 5621 5622 5624 5624 5624 5624 5624 5626 5627 5626 5622 5619 5616 5614 5611 5608 5605 5601 5598 5595 5591 5587 5583 5578 5574 5569 5564 5560 5555 5550 5545 5541 5535 5531 5526 5521 5517 5512 5508
5598 5601 5604 5607 5608 5609 5611 5613 5614 5614 5615 5616 5617 5616 5616 5612 5609 5607 5604 5602 5599 5596 5592 5588 5584 5580 5576 5572 5568 5563 5558 5553 5548 5543 5538 5534 5529 5524 5519 5514 5510 5506 5501 5497
5587 5591 5594 5596 5598 5598 5599 5603 5604 5605 5605 5606 5606 5607 5607 5602 5599 5597 5595 5592 5589 5586 5583 5579 5574 5570 5566 5561 5557 5552 5547 5542 5537 5532 5528 5523 5518 5514 5509 5504 5499 5495 5490 5486
5577 5580 5583 5585 5587 5586 5589 5595 5595 5595 5597 5596 5596 5598 5595 5592 5590 5588 5585 5583 5579 5576 5573 5569 5565 5560 5555 5551 5546 5542 5537 5532 5527 5522 5518 5513 5508 5504 5499 5494 5489 5484 5480 5475
5567 5569 5571 5573 5575 5575 5585 5586 5585 5585 5586 5586 5586 5586 5584 5582 5580 5578 5576 5573 5570 5566 5563 5559 5555 5550 5546 5541 5537 5532 5527 5522 5517 5512 5508 5504 5499 5494 5489 5484 5479 5475 5470 5466
5556 5558 5560 5562 5562 5565 5573 5576 5575 5574 5576 5577 5576 5576 5574 5572 5571 5570 5567 5563 5560 5556 5552 5549 5545 5540 5536 5532 5527 5523 5518 5513 5508 5503 5498 5494 5489 5484 5479 5475 5470 5466 5461 5457
5544 5547 5550 5551 5552 5555 5564 5565 5564 5564 5565 5567 5566 5565 5564 5562 5561 5561 5557 5554 5550 5547 5543 5539 5535 5531 5527 5523 5518 5513 5508 5503 5498 5494 5489 5484 5479 5475 5470 5466 5461 5457 5453 5449
5534 5536 5538 5540 5541 5545 5551 5552 5552 5554 5556 5556 5555 5554 5554 5552 5551 5549 5546 5544 5540 5537 5533 5529 5526 5522 5518 5513 5509 5504 5499 5495 5490 5486 5481 5476 5471 5466 5461 5457 5453 5449 5445 5441
5523 5526 5528 5530 5531 5538 5540 5540 5541 5542 5543 5544 5543 5543 5543 5542 5541 5539 5537 5534 5531 5528 5524 5520 5516 5512 5508 5504 5500 5495 5491 5487 5482 5478 5473 5468 5463 5458 5453 5449 5446 5442 5438 5434
5513 5516 5517 5520 5524 5526 5527 5528 5529 5530 5532 5532 5533 5533 5533 5532 5531 5529 5526 5524 5521 5518 5515 5511 5507 5503 5500 5495 5491 5486 5482 5478 5474 5470 5465 5461 5456 5451 5447 5443 5439 5435 5432 5428
5503 5505 5506 5509 5512 5515 5516 5517 5518 5520 5521 5522 5522 5522 5522 5521 5520 5519 5516 5514 5511 5508 5505 5501 5498 5494 5491 5486 5482 5478 5474 5470 5466 5462 5458 5454 5450 5446 5441 5437 5433 5429 5426 5423
5493 5494 5496 5498 5502 5503 5505 5507 5508 5509 5510 5511 5512 5512 5511 5510 5510 5508 5506 5504 5502 5499 5496 5492 5489 5485 5481 5477 5473 5470 5466 5462 5458 5455 5451 5447 5443 5440 5436 5432 5427 5424 5421 5417
5484 5485 5486 5489 5491 5493 5495 5496 5497 5498 5499 5501 5501 5501 5500 5500 5499 5498 5496 5494 5492 5489 5486 5483 5480 5476 5472 5469 5465 5461 5458 5454 5451 5448 5444 5441 5437 5433 5429 5426 5422 5418 5415 5413